This is the latest recevied weather packets stored in our database for station/object W8KVG. If no packets are shown the sender has not sent any weather packets the latest 10 day(s).
| Time | Temp. | Humidity | Pressure | Rain* | Wind** | Luminosity | Snow |
|---|---|---|---|---|---|---|---|
| 1777808130 | 2.78° C | 89% | 1016.4 hPa | 0 mm | - | 23 W/m² | - |
| 1777807828 | 2.22° C | 90% | 1016.4 hPa | 0 mm | - | 22 W/m² | - |
| 1777807526 | 2.22° C | 90% | 1016.3 hPa | 0 mm | - | 21 W/m² | - |
| 1777807228 | 2.22° C | 91% | 1016.1 hPa | 0 mm | - | 20 W/m² | - |
| 1777806918 | 1.67° C | 91% | 1015.9 hPa | 0 mm | - | 18 W/m² | - |
| 1777806615 | 1.67° C | 91% | 1016.1 hPa | 0 mm | - | 17 W/m² | - |
| 1777806311 | 1.11° C | 91% | 1015.9 hPa | 0 mm | - | 15 W/m² | - |
| 1777806008 | 0.56° C | 91% | 1015.9 hPa | 0 mm | - | 14 W/m² | - |
| 1777805704 | 0.56° C | 91% | 1015.9 hPa | 0 mm | - | 12 W/m² | - |
| 1777805402 | 0.56° C | 91% | 1015.7 hPa | 0 mm | - | 10 W/m² | - |
| 1777805100 | 0.56° C | 91% | 1015.6 hPa | 0 mm | - | 9 W/m² | - |
| 1777804797 | 0.56° C | 90% | 1015.4 hPa | 0 mm | - | 7 W/m² | - |
| 1777804495 | 0.56° C | 91% | 1015.6 hPa | 0 mm | - | 5 W/m² | - |
| 1777804191 | 0.56° C | 91% | 1015.6 hPa | 0 mm | - | 4 W/m² | - |
| 1777803889 | 0.56° C | 91% | 1015.6 hPa | 0 mm | - | 3 W/m² | - |
| 1777803585 | 0.56° C | 90% | 1015.5 hPa | 0 mm | - | 2 W/m² | - |
| 1777803283 | 1.11° C | 90% | 1015.3 hPa | 0 mm | - | 1 W/m² | - |
| 1777802979 | 1.11° C | 90% | 1015.3 hPa | 0 mm | - | 0 W/m² | - |
| 1777802677 | 1.11° C | 90% | 1015.3 hPa | 0 mm | - | 0 W/m² | - |
| 1777802374 | 1.11° C | 89% | 1015.4 hPa | 0 mm | - | 0 W/m² | - |
| 1777802072 | 1.67° C | 88% | 1015.3 hPa | 0 mm | - | 0 W/m² | - |
| 1777801770 | 1.67° C | 89% | 1015.3 hPa | 0 mm | - | 0 W/m² | - |
| 1777801466 | 1.67° C | 89% | 1015.3 hPa | 0 mm | - | 0 W/m² | - |
| 1777801163 | 1.67° C | 89% | 1015.5 hPa | 0 mm | - | 0 W/m² | - |
| 1777800860 | 1.67° C | 89% | 1015.3 hPa | 0 mm | - | 0 W/m² | - |
* Rain latest hour (hover to see other rain measurements)
** Current wind speed in m/s (hover to see current wind gust speed)